AAL3185 KPNS-KPHL

Flight info

Callsign AAL3185
Flight time 2h 6m
Altitude 37000
Route PENSI MGM TWOUP Q22 BEARI BBDOL PAATS4
Aircraft A319/M-SDE3FGHIRWY/LB1

Departure

Time 2026-05-06 00:16
Airport Pensacola International Airport (KPNS)

Arrival

Time 2026-05-06 02:22
Airport Philadelphia International Airport (KPHL)
Time Latitude Longitude Altitude Speed Heading
2026-05-05 23:24 30.47470 -87.19232 133 ft 0 kts 28°
2026-05-06 00:05 30.47467 -87.19234 126 ft 2 kts 28°
2026-05-06 00:05 30.47450 -87.19245 125 ft 3 kts 33°
2026-05-06 00:05 30.47434 -87.19259 125 ft 3 kts 45°
2026-05-06 00:06 30.47422 -87.19276 125 ft 3 kts 73°
2026-05-06 00:06 30.47421 -87.19292 125 ft 1 kts 116°
2026-05-06 00:06 30.47422 -87.19294 128 ft 0 kts 118°
2026-05-06 00:09 30.47421 -87.19293 130 ft 1 kts 118°
2026-05-06 00:09 30.47415 -87.19280 128 ft 3 kts 118°
2026-05-06 00:10 30.47404 -87.19244 129 ft 6 kts 98°
2026-05-06 00:10 30.47406 -87.19187 130 ft 8 kts 79°
2026-05-06 00:10 30.47418 -87.19142 130 ft 9 kts 69°
2026-05-06 00:10 30.47428 -87.19071 130 ft 9 kts 103°
2026-05-06 00:11 30.47458 -87.19011 130 ft 10 kts 19°
2026-05-06 00:11 30.47527 -87.19021 127 ft 11 kts 346°
2026-05-06 00:11 30.47600 -87.19041 127 ft 11 kts 346°
2026-05-06 00:11 30.47683 -87.19063 127 ft 12 kts 347°
2026-05-06 00:12 30.47771 -87.19086 130 ft 13 kts 347°
2026-05-06 00:12 30.47864 -87.19111 130 ft 14 kts 347°
2026-05-06 00:12 30.47965 -87.19138 129 ft 15 kts 347°
2026-05-06 00:12 30.48072 -87.19167 128 ft 16 kts 347°
2026-05-06 00:13 30.48143 -87.19186 131 ft 10 kts 347°
2026-05-06 00:13 30.48210 -87.19203 131 ft 6 kts 348°
2026-05-06 00:13 30.48253 -87.19191 132 ft 7 kts 46°
2026-05-06 00:13 30.48260 -87.19173 134 ft 0 kts 77°
2026-05-06 00:14 30.48261 -87.19167 131 ft 1 kts 77°
2026-05-06 00:14 30.48264 -87.19152 134 ft 3 kts 77°
2026-05-06 00:14 30.48269 -87.19129 134 ft 4 kts 77°
2026-05-06 00:14 30.48276 -87.19092 135 ft 6 kts 78°
2026-05-06 00:15 30.48243 -87.19051 135 ft 9 kts 160°
2026-05-06 00:15 30.48204 -87.19042 135 ft 0 kts 166°
2026-05-06 00:15 30.48189 -87.19037 133 ft 10 kts 166°
2026-05-06 00:16 30.47900 -87.18958 133 ft 79 kts 167°
2026-05-06 00:16 30.47151 -87.18763 128 ft 140 kts 167°
2026-05-06 00:16 30.46110 -87.18497 527 ft 155 kts 167°
2026-05-06 00:16 30.45066 -87.18224 1223 ft 152 kts 168°
2026-05-06 00:17 30.44036 -87.17969 1908 ft 153 kts 174°
2026-05-06 00:17 30.42990 -87.18378 2176 ft 178 kts 219°
2026-05-06 00:17 30.42426 -87.19774 2388 ft 215 kts 265°
2026-05-06 00:17 30.42916 -87.21520 2734 ft 250 kts 305°
2026-05-06 00:18 30.44412 -87.22715 3226 ft 277 kts 341°
2026-05-06 00:18 30.46344 -87.23104 4083 ft 285 kts 355°
2026-05-06 00:18 30.48343 -87.23182 5038 ft 289 kts 357°
2026-05-06 00:18 30.50359 -87.23219 5964 ft 292 kts 355°
2026-05-06 00:19 30.52403 -87.23320 6820 ft 295 kts 352°
2026-05-06 00:19 30.54452 -87.23507 7721 ft 295 kts 350°
2026-05-06 00:19 30.56493 -87.23761 8649 ft 294 kts 349°
2026-05-06 00:19 30.58495 -87.24053 9565 ft 294 kts 348°
2026-05-06 00:20 30.60552 -87.24376 10326 ft 299 kts 348°
2026-05-06 00:20 30.62664 -87.24723 10536 ft 322 kts 348°
2026-05-06 00:20 30.64934 -87.25097 10978 ft 334 kts 348°
2026-05-06 00:20 30.67240 -87.25471 11682 ft 336 kts 348°
2026-05-06 00:21 30.69559 -87.25840 12452 ft 336 kts 348°
2026-05-06 00:21 30.71877 -87.26206 13234 ft 336 kts 348°
2026-05-06 00:21 30.74191 -87.26571 13983 ft 336 kts 348°
2026-05-06 00:21 30.76510 -87.26923 14639 ft 338 kts 350°
2026-05-06 00:22 30.78887 -87.26841 15245 ft 347 kts
2026-05-06 00:22 30.81241 -87.26064 15835 ft 359 kts 17°
2026-05-06 00:22 30.83483 -87.24675 16410 ft 367 kts 22°
2026-05-06 00:22 30.85711 -87.23206 16993 ft 370 kts 22°
2026-05-06 00:23 30.87967 -87.21720 17566 ft 373 kts 22°
2026-05-06 00:23 30.90239 -87.20226 18131 ft 377 kts 21°
2026-05-06 00:23 30.92531 -87.18719 18650 ft 380 kts 21°
2026-05-06 00:23 30.94843 -87.17194 19141 ft 384 kts 21°
2026-05-06 00:24 30.97147 -87.15675 19647 ft 386 kts 21°
2026-05-06 00:24 30.99522 -87.14109 20168 ft 389 kts 21°
2026-05-06 00:24 31.01856 -87.12570 20679 ft 392 kts 21°
2026-05-06 00:24 31.04242 -87.10996 21176 ft 395 kts 21°
2026-05-06 00:25 31.06636 -87.09416 21666 ft 397 kts 20°
2026-05-06 00:25 31.09053 -87.07821 22146 ft 400 kts 20°
2026-05-06 00:25 31.11483 -87.06219 22609 ft 403 kts 20°
2026-05-06 00:25 31.13931 -87.04605 23060 ft 405 kts 20°
2026-05-06 00:26 31.16399 -87.02976 23498 ft 408 kts 20°
2026-05-06 00:26 31.18872 -87.01341 23863 ft 410 kts 20°
2026-05-06 00:26 31.21363 -86.99691 24228 ft 413 kts 20°
2026-05-06 00:26 31.23872 -86.98026 24545 ft 417 kts 20°
2026-05-06 00:27 31.26403 -86.96343 24871 ft 420 kts 20°
2026-05-06 00:27 31.28953 -86.94647 25214 ft 423 kts 20°
2026-05-06 00:27 31.31487 -86.92961 25544 ft 426 kts 21°
2026-05-06 00:27 31.34069 -86.91242 25890 ft 428 kts 21°
2026-05-06 00:28 31.36668 -86.89513 26233 ft 431 kts 21°
2026-05-06 00:28 31.39283 -86.87773 26564 ft 433 kts 21°
2026-05-06 00:28 31.41910 -86.86026 26897 ft 436 kts 20°
2026-05-06 00:28 31.44561 -86.84261 27228 ft 439 kts 20°
2026-05-06 00:29 31.47222 -86.82486 27563 ft 441 kts 21°
2026-05-06 00:29 31.49895 -86.80700 27888 ft 444 kts 20°
2026-05-06 00:29 31.52593 -86.78899 28196 ft 447 kts 20°
2026-05-06 00:29 31.55307 -86.77090 28515 ft 450 kts 20°
2026-05-06 00:30 31.58040 -86.75266 28826 ft 453 kts 20°
2026-05-06 00:30 31.60782 -86.73433 29104 ft 455 kts 20°
2026-05-06 00:30 31.63545 -86.71584 29400 ft 458 kts 20°
2026-05-06 00:30 31.66316 -86.69726 29741 ft 461 kts 20°
2026-05-06 00:31 31.69109 -86.67849 30066 ft 463 kts 20°
2026-05-06 00:31 31.71912 -86.65965 30323 ft 465 kts 20°
2026-05-06 00:31 31.74731 -86.64074 30595 ft 467 kts 20°
2026-05-06 00:31 31.77561 -86.62177 30876 ft 469 kts 20°
2026-05-06 00:32 31.80403 -86.60271 31127 ft 471 kts 20°
2026-05-06 00:32 31.83218 -86.58380 31414 ft 472 kts 20°
2026-05-06 00:32 31.86065 -86.56458 31793 ft 471 kts 20°
2026-05-06 00:32 31.88902 -86.54537 32206 ft 469 kts 20°
2026-05-06 00:33 31.91724 -86.52625 32612 ft 467 kts 19°
2026-05-06 00:33 31.94541 -86.50721 32976 ft 467 kts 19°
2026-05-06 00:33 31.97357 -86.48821 33345 ft 466 kts 19°
2026-05-06 00:33 32.00169 -86.46922 33707 ft 466 kts 19°
2026-05-06 00:34 32.02980 -86.45021 34101 ft 465 kts 19°
2026-05-06 00:34 32.05787 -86.43122 34425 ft 465 kts 18°
2026-05-06 00:34 32.08587 -86.41232 34772 ft 464 kts 18°
2026-05-06 00:34 32.11388 -86.39339 35121 ft 463 kts 18°
2026-05-06 00:35 32.14177 -86.37452 35462 ft 462 kts 18°
2026-05-06 00:35 32.16962 -86.35559 35795 ft 461 kts 18°
2026-05-06 00:35 32.19732 -86.33651 36124 ft 464 kts 20°
2026-05-06 00:35 32.22358 -86.31344 36423 ft 479 kts 30°
2026-05-06 00:36 32.24694 -86.28462 36712 ft 494 kts 40°
2026-05-06 00:36 32.26863 -86.25308 36942 ft 494 kts 40°
2026-05-06 00:36 32.29028 -86.22154 36988 ft 494 kts 40°
2026-05-06 00:37 32.33365 -86.15854 36998 ft 494 kts 39°
2026-05-06 00:37 32.37692 -86.09566 36992 ft 492 kts 39°
2026-05-06 00:38 32.42013 -86.03283 36990 ft 492 kts 39°
2026-05-06 00:38 32.46227 -85.97140 36989 ft 492 kts 39°
2026-05-06 00:39 32.50539 -85.90850 36990 ft 492 kts 39°
2026-05-06 00:39 32.54854 -85.84544 36993 ft 492 kts 39°
2026-05-06 00:40 32.59168 -85.78233 37012 ft 493 kts 39°
2026-05-06 00:40 32.63481 -85.71898 37015 ft 493 kts 39°
2026-05-06 00:41 32.67799 -85.65551 37014 ft 494 kts 39°
2026-05-06 00:41 32.72085 -85.59246 37021 ft 494 kts 39°
2026-05-06 00:42 32.76400 -85.52882 37025 ft 494 kts 39°
2026-05-06 00:42 32.80712 -85.46519 37020 ft 494 kts 39°
2026-05-06 00:43 32.85017 -85.40146 37044 ft 494 kts 39°
2026-05-06 00:43 32.89315 -85.33771 37029 ft 494 kts 39°
2026-05-06 00:44 32.93610 -85.27401 37017 ft 493 kts 39°
2026-05-06 00:44 32.97909 -85.21023 37029 ft 494 kts 39°
2026-05-06 00:45 33.02199 -85.14631 37026 ft 494 kts 39°
2026-05-06 00:45 33.06489 -85.08225 37062 ft 494 kts 39°
2026-05-06 00:46 33.10775 -85.01826 37063 ft 494 kts 39°
2026-05-06 00:46 33.15017 -84.95445 37051 ft 494 kts 39°
2026-05-06 00:47 33.19280 -84.89027 37047 ft 493 kts 39°
2026-05-06 00:47 33.23543 -84.82626 37041 ft 492 kts 39°
2026-05-06 00:48 33.27606 -84.76512 37037 ft 492 kts 39°
2026-05-06 00:48 33.31862 -84.70104 37032 ft 492 kts 39°
2026-05-06 00:49 33.36122 -84.63688 37037 ft 492 kts 39°
2026-05-06 00:49 33.40360 -84.57271 37041 ft 491 kts 39°
2026-05-06 00:50 33.44589 -84.50856 37040 ft 490 kts 39°
2026-05-06 00:50 33.48811 -84.44436 37028 ft 490 kts 39°
2026-05-06 00:51 33.53031 -84.38018 37025 ft 490 kts 39°
2026-05-06 00:51 33.57244 -84.31592 37087 ft 490 kts 40°
2026-05-06 00:52 33.61450 -84.25170 37062 ft 489 kts 40°
2026-05-06 00:52 33.65657 -84.18757 37041 ft 488 kts 40°
2026-05-06 00:53 33.69847 -84.12343 37037 ft 488 kts 40°
2026-05-06 00:53 33.74026 -84.05923 37033 ft 487 kts 40°
2026-05-06 00:54 33.78198 -83.99498 37037 ft 487 kts 40°
2026-05-06 00:54 33.82366 -83.93084 37064 ft 487 kts 40°
2026-05-06 00:55 33.86527 -83.86651 37059 ft 487 kts 40°
2026-05-06 00:55 33.90633 -83.80258 37067 ft 486 kts 41°
2026-05-06 00:56 33.94694 -83.73736 37062 ft 487 kts 42°
2026-05-06 00:56 33.98704 -83.67147 37057 ft 487 kts 42°
2026-05-06 00:57 34.02723 -83.60568 37049 ft 487 kts 42°
2026-05-06 00:57 34.06748 -83.54009 37061 ft 486 kts 42°
2026-05-06 00:58 34.10767 -83.47453 37058 ft 485 kts 42°
2026-05-06 00:58 34.14770 -83.40897 37041 ft 484 kts 42°
2026-05-06 00:59 34.18089 -83.35443 37039 ft 484 kts 43°
2026-05-06 00:59 34.22068 -83.28901 37028 ft 483 kts 42°
2026-05-06 01:00 34.26051 -83.22361 37023 ft 483 kts 42°
2026-05-06 01:00 34.30031 -83.15811 37035 ft 483 kts 43°
2026-05-06 01:01 34.33995 -83.09264 37040 ft 482 kts 43°
2026-05-06 01:01 34.37928 -83.02733 37033 ft 481 kts 43°
2026-05-06 01:02 34.41876 -82.96191 37029 ft 480 kts 43°
2026-05-06 01:02 34.45811 -82.89658 37026 ft 480 kts 43°
2026-05-06 01:03 34.49744 -82.83109 37017 ft 480 kts 43°
2026-05-06 01:03 34.53674 -82.76565 37050 ft 480 kts 43°
2026-05-06 01:04 34.57559 -82.70067 37023 ft 478 kts 43°
2026-05-06 01:04 34.61466 -82.63532 37021 ft 478 kts 43°
2026-05-06 01:05 34.65373 -82.56992 37014 ft 478 kts 43°
2026-05-06 01:05 34.69269 -82.50445 37012 ft 478 kts 43°
2026-05-06 01:06 34.73167 -82.43883 37030 ft 478 kts 43°
2026-05-06 01:06 34.77060 -82.37332 37064 ft 478 kts 44°
2026-05-06 01:07 34.80943 -82.30778 37058 ft 477 kts 44°
2026-05-06 01:07 34.84814 -82.24225 37043 ft 476 kts 44°
2026-05-06 01:08 34.88675 -82.17678 37034 ft 476 kts 44°
2026-05-06 01:08 34.92531 -82.11130 37035 ft 476 kts 44°
2026-05-06 01:09 34.96383 -82.04570 37026 ft 475 kts 44°
2026-05-06 01:09 35.00210 -81.98053 37046 ft 475 kts 44°
2026-05-06 01:10 35.04061 -81.91492 37031 ft 475 kts 43°
2026-05-06 01:10 35.07995 -81.85068 37017 ft 473 kts 42°
2026-05-06 01:11 35.12013 -81.78705 37010 ft 473 kts 41°
2026-05-06 01:11 35.16013 -81.72319 37016 ft 474 kts 42°
2026-05-06 01:12 35.19983 -81.65883 37019 ft 474 kts 42°
2026-05-06 01:12 35.23942 -81.59428 37056 ft 474 kts 43°
2026-05-06 01:13 35.27904 -81.52986 37015 ft 473 kts 42°
2026-05-06 01:13 35.31866 -81.46547 37016 ft 473 kts 43°
2026-05-06 01:14 35.37775 -81.36896 37016 ft 474 kts 43°
2026-05-06 01:14 35.41726 -81.30434 37022 ft 474 kts 43°
2026-05-06 01:15 35.45681 -81.23962 37058 ft 474 kts 43°
2026-05-06 01:15 35.49626 -81.17481 37037 ft 474 kts 43°
2026-05-06 01:16 35.53564 -81.11002 37032 ft 474 kts 43°
2026-05-06 01:16 35.57495 -81.04531 37024 ft 474 kts 43°
2026-05-06 01:17 35.61438 -80.98024 37028 ft 474 kts 43°
2026-05-06 01:17 35.65376 -80.91513 37030 ft 474 kts 43°
2026-05-06 01:18 35.69309 -80.85001 37043 ft 474 kts 43°
2026-05-06 01:18 35.73229 -80.78488 37038 ft 473 kts 43°
2026-05-06 01:19 35.77144 -80.71974 37029 ft 473 kts 43°
2026-05-06 01:19 35.81059 -80.65453 37019 ft 473 kts 43°
2026-05-06 01:20 35.84942 -80.58973 37021 ft 473 kts 43°
2026-05-06 01:20 35.88845 -80.52426 37021 ft 473 kts 44°
2026-05-06 01:21 35.92733 -80.45906 37025 ft 473 kts 43°
2026-05-06 01:21 35.96627 -80.39372 37021 ft 472 kts 44°
2026-05-06 01:22 36.00517 -80.32839 37000 ft 472 kts 43°
2026-05-06 01:22 36.04409 -80.26314 37004 ft 471 kts 43°
2026-05-06 01:23 36.08300 -80.19783 36991 ft 471 kts 43°
2026-05-06 01:23 36.12157 -80.13283 37032 ft 471 kts 44°
2026-05-06 01:24 36.16030 -80.06731 37030 ft 471 kts 44°
2026-05-06 01:24 36.19891 -80.00189 37022 ft 471 kts 44°
2026-05-06 01:25 36.23755 -79.93634 37014 ft 471 kts 44°
2026-05-06 01:25 36.25811 -79.90535 37013 ft 458 kts 34°
2026-05-06 01:25 36.28072 -79.87750 37014 ft 457 kts 34°
2026-05-06 01:26 36.32592 -79.82195 37045 ft 458 kts 34°
2026-05-06 01:26 36.37079 -79.76663 37040 ft 458 kts 34°
2026-05-06 01:27 36.41585 -79.71092 37033 ft 457 kts 34°
2026-05-06 01:27 36.46085 -79.65527 37002 ft 456 kts 34°
2026-05-06 01:28 36.50578 -79.59959 36987 ft 456 kts 34°
2026-05-06 01:28 36.55071 -79.54375 37006 ft 456 kts 34°
2026-05-06 01:29 36.59563 -79.48788 37014 ft 457 kts 34°
2026-05-06 01:29 36.64026 -79.43229 37016 ft 457 kts 34°
2026-05-06 01:30 36.68515 -79.37623 37019 ft 457 kts 34°
2026-05-06 01:30 36.72995 -79.32019 37020 ft 456 kts 34°
2026-05-06 01:31 36.77469 -79.26414 37038 ft 456 kts 34°
2026-05-06 01:31 36.81943 -79.20789 37017 ft 456 kts 34°
2026-05-06 01:32 36.86419 -79.15157 36990 ft 456 kts 34°
2026-05-06 01:32 36.90893 -79.09533 36986 ft 456 kts 34°
2026-05-06 01:33 36.95367 -79.03894 36994 ft 456 kts 34°
2026-05-06 01:33 36.99829 -78.98247 37010 ft 456 kts 34°
2026-05-06 01:34 37.04258 -78.92641 36997 ft 456 kts 34°
2026-05-06 01:34 37.08716 -78.86988 36989 ft 455 kts 34°
2026-05-06 01:35 37.13161 -78.81338 36986 ft 456 kts 34°
2026-05-06 01:35 37.17609 -78.75681 36984 ft 456 kts 34°
2026-05-06 01:36 37.22064 -78.69997 36992 ft 456 kts 34°
2026-05-06 01:36 37.26510 -78.64306 36982 ft 456 kts 35°
2026-05-06 01:37 37.30955 -78.58615 36986 ft 456 kts 35°
2026-05-06 01:37 37.35375 -78.52965 36980 ft 456 kts 35°
2026-05-06 01:38 37.39817 -78.47266 36999 ft 456 kts 35°
2026-05-06 01:38 37.44257 -78.41544 36982 ft 457 kts 35°
2026-05-06 01:39 37.48695 -78.35819 36968 ft 457 kts 35°
2026-05-06 01:39 37.53138 -78.30089 36963 ft 457 kts 35°
2026-05-06 01:40 37.57588 -78.24340 36959 ft 458 kts 35°
2026-05-06 01:40 37.62026 -78.18581 36973 ft 458 kts 35°
2026-05-06 01:41 37.66477 -78.12802 36961 ft 459 kts 35°
2026-05-06 01:41 37.70926 -78.07005 36960 ft 460 kts 35°
2026-05-06 01:42 37.75374 -78.01206 36960 ft 460 kts 35°
2026-05-06 01:42 37.79802 -77.95431 36967 ft 460 kts 35°
2026-05-06 01:43 37.84260 -77.89608 36974 ft 460 kts 36°
2026-05-06 01:43 37.88705 -77.83780 36967 ft 460 kts 36°
2026-05-06 01:44 37.93146 -77.77953 36970 ft 460 kts 36°
2026-05-06 01:44 37.97586 -77.72123 36971 ft 459 kts 36°
2026-05-06 01:45 38.02020 -77.66282 36988 ft 460 kts 36°
2026-05-06 01:45 38.05706 -77.61414 36976 ft 460 kts 36°
2026-05-06 01:46 38.10880 -77.54558 36973 ft 460 kts 37°
2026-05-06 01:46 38.14549 -77.49685 36972 ft 459 kts 37°
2026-05-06 01:47 38.19691 -77.42871 36968 ft 459 kts 37°
2026-05-06 01:47 38.20394 -77.41938 36965 ft 459 kts 37°
2026-05-06 01:48 38.21674 -77.40237 36995 ft 459 kts 37°
2026-05-06 01:48 38.22108 -77.39660 36988 ft 459 kts 37°
2026-05-06 01:49 38.22620 -77.38980 36996 ft 459 kts 37°
2026-05-06 01:49 38.27035 -77.33095 36972 ft 459 kts 37°
2026-05-06 01:50 38.31445 -77.27206 36965 ft 460 kts 37°
2026-05-06 01:50 38.35858 -77.21310 36955 ft 459 kts 37°
2026-05-06 01:51 38.40226 -77.15458 36953 ft 459 kts 37°
2026-05-06 01:51 38.44621 -77.09560 36975 ft 458 kts 37°
2026-05-06 01:52 38.49014 -77.03657 36967 ft 458 kts 37°
2026-05-06 01:52 38.53401 -76.97751 36958 ft 458 kts 37°
2026-05-06 01:53 38.57783 -76.91842 36949 ft 458 kts 37°
2026-05-06 01:53 38.62161 -76.85917 36986 ft 458 kts 38°
2026-05-06 01:54 38.66517 -76.80007 36966 ft 458 kts 38°
2026-05-06 01:54 38.70368 -76.73392 36946 ft 476 kts 56°
2026-05-06 01:55 38.71624 -76.69425 36941 ft 486 kts 67°
2026-05-06 01:55 38.72507 -76.65235 36933 ft 488 kts 69°
2026-05-06 01:55 38.74259 -76.56827 36937 ft 488 kts 68°
2026-05-06 01:56 38.76005 -76.48470 36941 ft 489 kts 69°
2026-05-06 01:56 38.77763 -76.40058 36954 ft 488 kts 69°
2026-05-06 01:57 38.79501 -76.31648 36977 ft 489 kts 69°
2026-05-06 01:57 38.80364 -76.27429 36817 ft 489 kts 69°
2026-05-06 01:57 38.81233 -76.23182 35657 ft 495 kts 70°
2026-05-06 01:58 38.82114 -76.18893 34808 ft 501 kts 71°
2026-05-06 01:58 38.83007 -76.14539 33860 ft 508 kts 72°
2026-05-06 01:58 38.83905 -76.10153 33078 ft 507 kts 73°
2026-05-06 01:58 38.84800 -76.05754 31952 ft 513 kts 73°
2026-05-06 01:59 38.85692 -76.01351 31485 ft 505 kts 73°
2026-05-06 01:59 38.86567 -75.97014 30885 ft 500 kts 73°
2026-05-06 01:59 38.87431 -75.92719 30299 ft 495 kts 73°
2026-05-06 01:59 38.88543 -75.88572 29659 ft 488 kts 63°
2026-05-06 02:00 38.90163 -75.84793 29098 ft 478 kts 53°
2026-05-06 02:00 38.92205 -75.81485 28533 ft 468 kts 43°
2026-05-06 02:00 38.94586 -75.78711 27994 ft 458 kts 33°
2026-05-06 02:00 38.97139 -75.76301 27448 ft 453 kts 32°
2026-05-06 02:01 38.99669 -75.73913 26916 ft 448 kts 32°
2026-05-06 02:01 39.02169 -75.71545 26396 ft 444 kts 32°
2026-05-06 02:01 39.04747 -75.69520 25889 ft 436 kts 22°
2026-05-06 02:01 39.07532 -75.68109 25374 ft 427 kts 11°
2026-05-06 02:02 39.10412 -75.67345 24905 ft 418 kts
2026-05-06 02:02 39.13292 -75.67035 24441 ft 414 kts 359°
2026-05-06 02:02 39.16161 -75.66733 23993 ft 413 kts 359°
2026-05-06 02:02 39.19013 -75.66419 23547 ft 411 kts 359°
2026-05-06 02:03 39.21851 -75.66097 23053 ft 408 kts 359°
2026-05-06 02:03 39.24662 -75.65772 22622 ft 404 kts
2026-05-06 02:03 39.27428 -75.65076 22177 ft 406 kts 12°
2026-05-06 02:03 39.30061 -75.63739 21696 ft 407 kts 24°
2026-05-06 02:04 39.32474 -75.61836 21211 ft 407 kts 31°
2026-05-06 02:04 39.34817 -75.59793 20711 ft 405 kts 32°
2026-05-06 02:04 39.36992 -75.57488 20222 ft 405 kts 44°
2026-05-06 02:04 39.38804 -75.54718 19728 ft 403 kts 55°
2026-05-06 02:05 39.40205 -75.51587 19238 ft 400 kts 66°
2026-05-06 02:05 39.41232 -75.48307 18750 ft 398 kts 70°
2026-05-06 02:05 39.42243 -75.44938 18250 ft 396 kts 70°
2026-05-06 02:05 39.43220 -75.41664 17705 ft 394 kts 70°
2026-05-06 02:06 39.44195 -75.38389 17282 ft 388 kts 70°
2026-05-06 02:06 39.45195 -75.35168 16798 ft 385 kts 65°
2026-05-06 02:06 39.46561 -75.32200 16307 ft 382 kts 53°
2026-05-06 02:06 39.48320 -75.29644 15826 ft 379 kts 41°
2026-05-06 02:07 39.50393 -75.27579 15350 ft 374 kts 31°
2026-05-06 02:07 39.52567 -75.25752 14876 ft 372 kts 31°
2026-05-06 02:07 39.54725 -75.23919 14406 ft 370 kts 32°
2026-05-06 02:07 39.56859 -75.22093 13924 ft 368 kts 32°
2026-05-06 02:08 39.58990 -75.20260 13442 ft 365 kts 32°
2026-05-06 02:08 39.61099 -75.18442 12947 ft 362 kts 32°
2026-05-06 02:08 39.63186 -75.16645 12480 ft 358 kts 32°
2026-05-06 02:08 39.65257 -75.14866 12018 ft 355 kts 32°
2026-05-06 02:09 39.67279 -75.13132 11564 ft 352 kts 31°
2026-05-06 02:09 39.69313 -75.11388 11109 ft 349 kts 31°
2026-05-06 02:09 39.71334 -75.09655 10659 ft 346 kts 31°
2026-05-06 02:09 39.73243 -75.07768 10328 ft 341 kts 42°
2026-05-06 02:10 39.74842 -75.05564 10198 ft 329 kts 47°
2026-05-06 02:10 39.76367 -75.03398 9988 ft 322 kts 47°
2026-05-06 02:10 39.77872 -75.01266 9889 ft 319 kts 47°
2026-05-06 02:10 39.79392 -74.99111 9288 ft 326 kts 47°
2026-05-06 02:11 39.80905 -74.96961 8978 ft 319 kts 46°
2026-05-06 02:11 39.82397 -74.94815 8196 ft 323 kts 50°
2026-05-06 02:11 39.83595 -74.92324 7342 ft 329 kts 66°
2026-05-06 02:11 39.84290 -74.89499 6622 ft 328 kts 77°
2026-05-06 02:12 39.84892 -74.86642 5984 ft 326 kts 71°
2026-05-06 02:12 39.86072 -74.84197 5486 ft 316 kts 41°
2026-05-06 02:12 39.87867 -74.82775 5033 ft 300 kts 12°
2026-05-06 02:12 39.89856 -74.82509 4577 ft 279 kts 345°
2026-05-06 02:13 39.91589 -74.83252 4423 ft 246 kts 320°
2026-05-06 02:13 39.92831 -74.84529 4361 ft 212 kts 303°
2026-05-06 02:13 39.93664 -74.86006 4288 ft 195 kts 285°
2026-05-06 02:13 39.94036 -74.87583 4232 ft 170 kts 268°
2026-05-06 02:14 39.93967 -74.89035 4215 ft 150 kts 255°
2026-05-06 02:14 39.93785 -74.90302 4126 ft 135 kts 251°
2026-05-06 02:14 39.93585 -74.91459 4063 ft 129 kts 250°
2026-05-06 02:14 39.93375 -74.92593 4010 ft 129 kts 249°
2026-05-06 02:15 39.93159 -74.93723 3941 ft 128 kts 249°
2026-05-06 02:15 39.92941 -74.94850 3894 ft 129 kts 249°
2026-05-06 02:15 39.92722 -74.95977 3854 ft 129 kts 249°
2026-05-06 02:15 39.92500 -74.97111 3747 ft 129 kts 249°
2026-05-06 02:16 39.92279 -74.98236 3605 ft 128 kts 248°
2026-05-06 02:16 39.92060 -74.99354 3455 ft 127 kts 248°
2026-05-06 02:16 39.91841 -75.00464 3289 ft 127 kts 247°
2026-05-06 02:16 39.91624 -75.01569 3132 ft 125 kts 247°
2026-05-06 02:17 39.91407 -75.02668 2968 ft 125 kts 246°
2026-05-06 02:17 39.91191 -75.03762 2803 ft 124 kts 246°
2026-05-06 02:17 39.90978 -75.04845 2647 ft 124 kts 246°
2026-05-06 02:17 39.90764 -75.05930 2493 ft 123 kts 246°
2026-05-06 02:18 39.90551 -75.07010 2341 ft 123 kts 245°
2026-05-06 02:18 39.90354 -75.08020 2178 ft 106 kts 244°
2026-05-06 02:18 39.90179 -75.08909 2048 ft 98 kts 242°
2026-05-06 02:18 39.90011 -75.09755 1927 ft 95 kts 242°
2026-05-06 02:19 39.89846 -75.10584 1805 ft 94 kts 241°
2026-05-06 02:19 39.89682 -75.11410 1685 ft 94 kts 240°
2026-05-06 02:19 39.89520 -75.12227 1566 ft 92 kts 242°
2026-05-06 02:19 39.89359 -75.13035 1428 ft 95 kts 241°
2026-05-06 02:20 39.89017 -75.14757 1177 ft 101 kts 242°
2026-05-06 02:20 39.88837 -75.15662 1038 ft 105 kts 243°
2026-05-06 02:20 39.88652 -75.16595 909 ft 109 kts 245°
2026-05-06 02:21 39.88455 -75.17581 770 ft 116 kts 246°
2026-05-06 02:21 39.88250 -75.18613 636 ft 119 kts 246°
2026-05-06 02:21 39.88039 -75.19670 466 ft 121 kts 246°
2026-05-06 02:21 39.87835 -75.20722 308 ft 119 kts 246°
2026-05-06 02:22 39.87607 -75.21787 134 ft 123 kts 250°
2026-05-06 02:22 39.87411 -75.22859 30 ft 111 kts 250°
2026-05-06 02:22 39.87247 -75.23664 26 ft 68 kts 254°
2026-05-06 02:22 39.87150 -75.24149 26 ft 46 kts 255°
2026-05-06 02:23 39.87079 -75.24506 26 ft 40 kts 255°
2026-05-06 02:23 39.87040 -75.24757 26 ft 14 kts 275°
2026-05-06 02:23 39.87104 -75.24831 29 ft 8 kts 343°
2026-05-06 02:23 39.87110 -75.24833 28 ft 0 kts 344°
2026-05-06 02:25 39.87118 -75.24836 29 ft 3 kts 345°
2026-05-06 02:25 39.87148 -75.24846 27 ft 6 kts 345°
2026-05-06 02:25 39.87187 -75.24849 27 ft 6 kts 22°
2026-05-06 02:26 39.87210 -75.24790 26 ft 8 kts 75°
2026-05-06 02:26 39.87227 -75.24705 26 ft 11 kts 75°
2026-05-06 02:26 39.87244 -75.24620 26 ft 11 kts 76°
2026-05-06 02:26 39.87265 -75.24516 27 ft 13 kts 75°
2026-05-06 02:27 39.87290 -75.24389 28 ft 15 kts 75°
2026-05-06 02:27 39.87512 -75.24322 27 ft 0 kts 269°
2026-05-06 02:28 39.87512 -75.24321 27 ft 0 kts 269°
2026-05-06 02:32 39.87512 -75.24322 27 ft 0 kts 269°